• In Russia
  • List of Countries
  • For 7 days
  • Water Temperature
  • Weather Map
  • Weather Widgets
  • user-avatar
    Login

    Hourly Weather Etchmiadzin

    Today, 23 September, Monday

    Time Temperature Precipitation Wind Pressure Humidity
    00:00 +14°C° 0 mm 1 mps 688 mmHg 41%
    01:00 +13°C° 0 mm 1 mps 687 mmHg 43%
    02:00 +13°C° 0 mm 1 mps 687 mmHg 44%
    03:00 +12°C° 0 mm 1 mps 687 mmHg 46%
    04:00 +12°C° 0 mm 1 mps 687 mmHg 47%
    05:00 +12°C° 0 mm 1 mps 687 mmHg 48%
    06:00 +11°C° 0 mm 1 mps 687 mmHg 49%
    07:00 +14°C° 0 mm 1 mps 687 mmHg 43%
    08:00 +16°C° 0 mm 1 mps 687 mmHg 37%
    09:00 +20°C° 0 mm 1 mps 688 mmHg 30%
    10:00 +21°C° 0 mm 1 mps 688 mmHg 28%
    11:00 +23°C° 0 mm 2 mps 687 mmHg 26%
    12:00 +24°C° 0 mm 2 mps 687 mmHg 23%
    13:00 +25°C° 0 mm 2 mps 687 mmHg 22%
    14:00 +26°C° 0 mm 2 mps 686 mmHg 21%
    15:00 +27°C° 0 mm 2 mps 686 mmHg 20%
    16:00 +25°C° 0 mm 1 mps 685 mmHg 23%
    17:00 +23°C° 0 mm 1 mps 685 mmHg 27%
    18:00 +19°C° 0 mm 0 mps 685 mmHg 30%
    19:00 +20°C° 0 mm 1 mps 685 mmHg 31%
    20:00 +20°C° 0 mm 1 mps 686 mmHg 32%
    21:00 +19°C° 0 mm 1 mps 686 mmHg 32%
    22:00 +18°C° 0 mm 1 mps 686 mmHg 33%
    23:00 +18°C° 0 mm 1 mps 686 mmHg 34%

    Tomorrow, 24 September, Tuesday

    Time Temperature Precipitation Wind Pressure Humidity
    00:00 +16°C° 0 mm 1 mps 686 mmHg 35%
    01:00 +16°C° 0 mm 1 mps 686 mmHg 38%
    02:00 +15°C° 0 mm 1 mps 686 mmHg 41%
    03:00 +15°C° 0 mm 2 mps 686 mmHg 44%
    04:00 +14°C° 0 mm 1 mps 686 mmHg 46%
    05:00 +14°C° 0 mm 1 mps 686 mmHg 47%
    06:00 +13°C° 0 mm 1 mps 686 mmHg 49%
    07:00 +16°C° 0 mm 1 mps 686 mmHg 42%
    08:00 +20°C° 0 mm 1 mps 687 mmHg 36%
    09:00 +22°C° 0 mm 1 mps 688 mmHg 29%
    10:00 +24°C° 0 mm 1 mps 687 mmHg 26%
    11:00 +25°C° 0 mm 2 mps 687 mmHg 23%
    12:00 +27°C° 0 mm 2 mps 687 mmHg 20%
    13:00 +28°C° 0 mm 2 mps 687 mmHg 18%
    14:00 +28°C° 0 mm 2 mps 686 mmHg 16%
    15:00 +29°C° 0 mm 2 mps 686 mmHg 14%
    16:00 +27°C° 0 mm 2 mps 686 mmHg 17%
    17:00 +25°C° 0 mm 2 mps 685 mmHg 19%
    18:00 +23°C° 0 mm 2 mps 685 mmHg 22%
    19:00 +21°C° 0 mm 2 mps 685 mmHg 22%
    20:00 +21°C° 0 mm 2 mps 685 mmHg 23%
    21:00 +20°C° 0 mm 2 mps 686 mmHg 23%
    22:00 +19°C° 0 mm 2 mps 686 mmHg 25%
    23:00 +18°C° 0 mm 2 mps 685 mmHg 28%

    Day after tomorrow, 25 September, Wednesday

    Time Temperature Precipitation Wind Pressure Humidity
    00:00 +18°C° 0 mm 1 mps 685 mmHg 30%
    01:00 +18°C° 0 mm 1 mps 685 mmHg 32%
    02:00 +16°C° 0 mm 1 mps 685 mmHg 33%
    03:00 +16°C° 0 mm 1 mps 685 mmHg 35%
    04:00 +16°C° 0 mm 1 mps 685 mmHg 36%
    05:00 +15°C° 0 mm 1 mps 685 mmHg 38%
    06:00 +15°C° 0 mm 1 mps 685 mmHg 40%
    07:00 +18°C° 0 mm 1 mps 685 mmHg 34%
    08:00 +21°C° 0 mm 1 mps 686 mmHg 27%
    09:00 +24°C° 0 mm 1 mps 687 mmHg 21%
    10:00 +26°C° 0 mm 1 mps 686 mmHg 19%
    11:00 +27°C° 0 mm 2 mps 686 mmHg 17%
    12:00 +29°C° 0 mm 2 mps 686 mmHg 14%
    13:00 +29°C° 0 mm 2 mps 686 mmHg 14%
    14:00 +30°C° 0 mm 2 mps 686 mmHg 13%
    15:00 +31°C° 0 mm 2 mps 686 mmHg 12%
    16:00 +29°C° 0 mm 2 mps 686 mmHg 14%
    17:00 +27°C° 0 mm 2 mps 685 mmHg 16%
    18:00 +25°C° 0 mm 2 mps 685 mmHg 18%
    19:00 +24°C° 0 mm 2 mps 686 mmHg 19%
    20:00 +23°C° 0 mm 2 mps 686 mmHg 19%
    21:00 +23°C° 0 mm 2 mps 686 mmHg 20%
    22:00 +22°C° 0 mm 1 mps 686 mmHg 21%
    23:00 +21°C° 0 mm 1 mps 686 mmHg 22%

    26 September, Thursday

    Time Temperature Precipitation Wind Pressure Humidity
    00:00 +21°C° 0 mm 1 mps 686 mmHg 23%
    01:00 +20°C° 0 mm 1 mps 686 mmHg 23%
    02:00 +20°C° 0 mm 1 mps 686 mmHg 24%
    03:00 +20°C° 0 mm 1 mps 686 mmHg 24%
    04:00 +19°C° 0 mm 1 mps 686 mmHg 25%
    05:00 +19°C° 0 mm 1 mps 686 mmHg 26%
    06:00 +19°C° 0 mm 1 mps 686 mmHg 27%
    07:00 +21°C° 0 mm 1 mps 687 mmHg 24%
    08:00 +24°C° 0 mm 1 mps 687 mmHg 21%
    09:00 +27°C° 0 mm 2 mps 688 mmHg 18%
    10:00 +28°C° 0 mm 2 mps 688 mmHg 17%
    11:00 +30°C° 0 mm 2 mps 688 mmHg 16%
    12:00 +31°C° 0 mm 3 mps 687 mmHg 15%
    13:00 +33°C° 0 mm 3 mps 687 mmHg 14%
    14:00 +33°C° 0 mm 3 mps 687 mmHg 13%
    15:00 +34°C° 0 mm 3 mps 686 mmHg 12%
    16:00 +31°C° 0 mm 3 mps 686 mmHg 15%
    17:00 +28°C° 0 mm 2 mps 685 mmHg 17%
    18:00 +26°C° 0 mm 1 mps 685 mmHg 19%
    19:00 +25°C° 0 mm 1 mps 685 mmHg 20%
    20:00 +24°C° 0 mm 1 mps 685 mmHg 21%
    21:00 +23°C° 0 mm 1 mps 685 mmHg 22%
    22:00 +23°C° 0 mm 2 mps 685 mmHg 24%
    23:00 +21°C° 0 mm 2 mps 685 mmHg 26%

    27 September, Friday

    Time Temperature Precipitation Wind Pressure Humidity
    00:00 +20°C° 0 mm 2 mps 685 mmHg 28%
    01:00 +20°C° 0 mm 2 mps 685 mmHg 31%
    02:00 +19°C° 0 mm 2 mps 685 mmHg 34%
    03:00 +19°C° 0 mm 2 mps 685 mmHg 36%
    04:00 +18°C° 0 mm 2 mps 685 mmHg 38%
    05:00 +18°C° 0 mm 2 mps 685 mmHg 40%
    06:00 +18°C° 0 mm 1 mps 685 mmHg 42%
    07:00 +21°C° 0 mm 1 mps 686 mmHg 37%
    08:00 +24°C° 0 mm 1 mps 686 mmHg 31%
    09:00 +27°C° 0 mm 1 mps 687 mmHg 25%
    10:00 +28°C° 0 mm 1 mps 687 mmHg 23%
    11:00 +30°C° 0 mm 1 mps 687 mmHg 20%
    12:00 +31°C° 0 mm 2 mps 687 mmHg 18%
    13:00 +32°C° 0 mm 2 mps 686 mmHg 17%
    14:00 +32°C° 0 mm 2 mps 686 mmHg 16%
    15:00 +34°C° 0 mm 2 mps 685 mmHg 15%
    16:00 +31°C° 0 mm 2 mps 685 mmHg 18%
    17:00 +28°C° 0 mm 2 mps 685 mmHg 20%
    18:00 +26°C° 0 mm 2 mps 685 mmHg 23%
    19:00 +25°C° 0 mm 2 mps 685 mmHg 24%
    20:00 +25°C° 0 mm 2 mps 685 mmHg 25%
    21:00 +24°C° 0 mm 1 mps 685 mmHg 26%
    22:00 +23°C° 0 mm 2 mps 685 mmHg 28%
    23:00 +23°C° 0 mm 2 mps 685 mmHg 30%

    28 September, Saturday

    Time Temperature Precipitation Wind Pressure Humidity
    00:00 +21°C° 0 mm 2 mps 685 mmHg 32%
    01:00 +21°C° 0 mm 1 mps 685 mmHg 34%
    02:00 +21°C° 0 mm 1 mps 685 mmHg 35%
    03:00 +20°C° 0 mm 1 mps 685 mmHg 37%
    04:00 +20°C° 0 mm 1 mps 684 mmHg 40%
    05:00 +19°C° 0 mm 1 mps 684 mmHg 42%
    06:00 +19°C° 0 mm 1 mps 684 mmHg 45%
    07:00 +21°C° 0 mm 1 mps 685 mmHg 39%
    08:00 +24°C° 0 mm 1 mps 685 mmHg 33%
    09:00 +27°C° 0 mm 1 mps 686 mmHg 27%
    10:00 +28°C° 0 mm 3 mps 686 mmHg 26%
    11:00 +29°C° 0 mm 4 mps 686 mmHg 24%
    12:00 +32°C° 0 mm 5 mps 687 mmHg 23%
    13:00 +30°C° 0 mm 6 mps 686 mmHg 24%
    14:00 +30°C° 0 mm 6 mps 686 mmHg 25%
    15:00 +29°C° 0 mm 7 mps 685 mmHg 25%
    16:00 +28°C° 0 mm 6 mps 685 mmHg 28%
    17:00 +27°C° 0 mm 5 mps 685 mmHg 31%
    18:00 +25°C° 0 mm 4 mps 685 mmHg 34%
    19:00 +23°C° 0 mm 4 mps 686 mmHg 37%
    20:00 +21°C° 0 mm 4 mps 686 mmHg 40%
    21:00 +20°C° 0 mm 4 mps 686 mmHg 43%
    22:00 +20°C° 0 mm 4 mps 686 mmHg 43%
    23:00 +19°C° 0 mm 3 mps 686 mmHg 42%
    Show more